This is the latest recevied weather packets stored in our database for station/object KB0VMZ. If no packets are shown the sender has not sent any weather packets the latest 10 day(s).
| Time | Temp. | Humidity | Pressure | Rain* | Wind** | Luminosity | Snow |
|---|---|---|---|---|---|---|---|
| 1788519633 | 21.67° C | 100% | 0 hPa | 0 mm | 0.45 m/s, 180° | - | - |
| 1788519033 | 21.67° C | 100% | 0 hPa | 0 mm | 0 m/s | - | - |
| 1788518433 | 22.22° C | 100% | 0 hPa | 0 mm | 0 m/s | - | - |
| 1788517835 | 22.22° C | 100% | 0 hPa | 0 mm | 0 m/s | - | - |
| 1788517233 | 22.22° C | 100% | 0 hPa | 0 mm | 0.45 m/s, 180° | - | - |
| 1788516633 | 22.22° C | 100% | 0 hPa | 0 mm | 0 m/s | - | - |
| 1788516033 | 22.22° C | 100% | 0 hPa | 0 mm | 0 m/s | - | - |
| 1788515433 | 22.22° C | 100% | 0 hPa | 0 mm | 0 m/s | - | - |
| 1788514840 | 22.22° C | 100% | 0 hPa | 0 mm | 1.79 m/s, 225° | - | - |
| 1788514233 | 22.22° C | 100% | 0 hPa | 0 mm | 0.45 m/s, 157° | - | - |
| 1788513633 | 22.78° C | 100% | 0 hPa | 0 mm | 0.45 m/s, 180° | - | - |
| 1788513033 | 22.78° C | 100% | 0 hPa | 0 mm | 0.45 m/s, 180° | - | - |
| 1788512433 | 22.78° C | 100% | 0 hPa | 0 mm | 0 m/s | - | - |
| 1788511834 | 22.78° C | 100% | 0 hPa | 0 mm | 0.45 m/s, 135° | - | - |
| 1788511234 | 23.33° C | 100% | 0 hPa | 0 mm | 0.45 m/s, 225° | - | - |
| 1788510633 | 23.33° C | 100% | 0 hPa | 0 mm | 1.34 m/s, 180° | - | - |
| 1788510033 | 23.33° C | 100% | 0 hPa | 0 mm | 0.45 m/s, 180° | - | - |
| 1788509433 | 23.33° C | 100% | 0 hPa | 0 mm | 0.45 m/s, 135° | - | - |
| 1788508833 | 23.33° C | 100% | 0 hPa | 0 mm | 0.45 m/s, 45° | - | - |
| 1788508233 | 23.89° C | 100% | 0 hPa | 0 mm | 0.89 m/s, 225° | - | - |
| 1788507633 | 23.89° C | 100% | 0 hPa | 0 mm | 0 m/s | - | - |
| 1788507033 | 23.89° C | 100% | 0 hPa | 0 mm | 0.89 m/s, 202° | - | - |
| 1788506434 | 23.89° C | 100% | 0 hPa | 0 mm | 1.79 m/s, 180° | - | - |
| 1788505834 | 24.44° C | 100% | 0 hPa | 0 mm | 0.89 m/s, 135° | - | - |
| 1788505234 | 24.44° C | 100% | 0 hPa | 0 mm | 0.45 m/s, 202° | - | - |
* Rain latest hour (hover to see other rain measurements)
** Current wind speed in m/s (hover to see current wind gust speed)